Location: Hancock Field Station
(44.9202°N, 120.4259°W)
Time: 15:21:53
(UTC-08:00)

Nadezhda 4 Rocket - Visible Passes

Search period start: 06 February 2016 00:00
Search period end: 16 February 2016 00:00
Orbit: 950 x 992 km, 82.9° (Epoch: 06 February)

Date Brightness Start Highest point End Pass type
(mag) Time Alt. Az. Time Alt. Az. Time Alt. Az.
13 Feb 6.3 20:55:43 10° N 20:56:12 12° N 20:56:12 12° N visible
14 Feb 6.3 21:19:41 10° N 21:20:27 14° N 21:20:27 14° N visible
15 Feb 6.0 19:59:21 10° NNE 20:00:10 13° NNE 20:00:10 13° NNE visible
15 Feb 6.4 21:43:54 10° NNW 21:44:45 14° NNW 21:44:45 14° NNW visible
